Location: Newark
(11.2914°S, 14.4718°E)
Time: 20:46:57
(UTC+00:00)

Vanguard 2 - Pass Details

Date: 19 September 2019
Orbit: 554 x 2937 km, 32.9° (Epoch: 17 October)

Event Time Altitude Azimuth Distance (km) Brightness Sun altitude
Rises 22:15:40 0° 243° (WSW) 6,383 12.4 -75.9°
Reaches altitude 10° 22:19:40 10° 245° (WSW) 5,545 11.9 -76.6°
Enters shadow 22:22:02 17° 247° (WSW) 5,069 11.7 -77.0°
